Location: Newark
(41.3833°N, 2.1669°E)
Time: 01:25:57
(UTC+00:00)

Envisat - Visible Passes

Search period start: 07 December 2019 00:00
Search period end: 17 December 2019 00:00
Orbit: 764 x 766 km, 98.1° (Epoch: 06 December)

Date Brightness Start Highest point End Pass type
(mag) Time Alt. Az. Time Alt. Az. Time Alt. Az.
07 Dec 2.9 17:48:05 10° SSE 17:53:10 90° E 17:58:17 10° NNW visible
08 Dec 5.1 05:57:19 10° NNE 06:01:49 31° E 06:06:17 10° SSE visible
08 Dec 3.4 17:11:47 10° SE 17:16:31 41° ENE 17:21:16 10° N visible
08 Dec 5.3 18:51:40 10° SW 18:55:40 23° W 18:59:42 10° NW visible
09 Dec 6.1 05:22:06 10° ENE 05:24:42 14° E 05:27:17 10° ESE visible
09 Dec 3.8 18:13:46 10° S 18:18:41 51° W 18:23:39 10° NNW visible
10 Dec 3.9 06:22:25 10° NNE 06:27:25 55° E 06:32:23 10° S visible
10 Dec 2.9 17:36:51 10° SSE 17:41:54 72° ENE 17:46:58 10° N visible
10 Dec 6.0 19:19:07 10° WSW 19:21:26 13° W 19:23:46 10° WNW visible
11 Dec 5.5 05:46:19 10° NE 05:50:27 25° E 05:54:34 10° SSE visible
11 Dec 3.6 17:00:49 10° SE 17:05:18 33° ENE 17:09:49 10° N visible
11 Dec 4.9 18:39:55 10° SSW 18:44:18 29° W 18:48:43 10° NW visible
12 Dec 6.4 05:12:13 10° ENE 05:13:17 11° E 05:14:20 10° E visible
12 Dec 3.4 18:02:21 10° S 18:07:23 66° WSW 18:12:27 10° NNW visible
13 Dec 4.4 06:11:16 10° NNE 06:16:06 43° E 06:20:55 10° S visible
13 Dec 3.0 17:25:42 10° SSE 17:30:39 57° ENE 17:35:38 10° N visible
13 Dec 5.8 19:06:48 10° SW 19:10:02 17° W 19:13:15 10° NW visible
14 Dec 5.8 05:35:26 10° NE 05:39:05 20° E 05:42:42 10° SE visible
14 Dec 3.9 16:49:56 10° ESE 16:54:08 27° ENE 16:58:19 10° N visible
14 Dec 4.5 18:28:17 10° SSW 18:32:58 37° W 18:37:40 10° NNW visible
15 Dec 3.3 06:36:33 10° NNE 06:41:39 76° ESE 06:46:43 10° S visible
15 Dec 3.0 17:51:01 10° SSE 17:56:05 83° WSW 18:01:13 10° NNW visible
16 Dec 4.9 06:00:09 10° NNE 06:04:46 34° E 06:09:21 10° SSE visible
16 Dec 3.3 17:14:37 10° SE 17:19:25 45° ENE 17:24:15 10° N visible
16 Dec 5.4 18:54:49 10° SW 18:58:38 21° W 19:02:29 10° NW visible
